Vorticity
6 7 9 15 1 -3 2 -4 2 -17 21 27 18 7 8 -9 12 2 8 10 10 15 3 1 2 5 5 7 5 6 4 4 4 3 3 2 1 -0 -1 2 1 3 3 1 2 1 0 1 1
6 6 13 4 -9 -2 -6 3 1 -15 10 3 -1 3 17 -6 5 10 14 6 11 8 5 3 5 3 2 3 4 5 3 2 2 2 4 4 4 4 3 2 2 3 3 4 3 4 4 4 4
8 10 6 -10 -14 -5 3 11 1 2 2 6 -1 9 11 -4 6 3 4 12 11 6 12 4 4 4 2 1 2 2 2 2 2 2 2 2 2 3 4 4 3 3 3 3 4 4 4 6 5
7 16 -2 -10 14 -1 -14 -1 -11 -15 13 7 11 5 -5 -6 5 5 6 8 14 18 4 8 7 3 6 6 4 3 2 1 2 4 5 5 4 3 2 2 3 2 1 1 2 2 3 4 4
11 13 7 4 -3 10 9 5 16 13 6 10 3 3 17 5 8 2 9 4 9 11 15 8 4 7 4 4 5 4 4 4 3 3 3 2 3 2 2 2 3 3 3 2 3 3 3 3 3
9 13 0 5 5 -5 -19 -2 15 10 5 9 6 4 -10 -37 33 -3 6 5 3 10 8 14 10 5 8 3 5 8 5 3 4 3 2 2 3 2 2 3 3 3 3 3 4 3 4 4 3
10 -5 7 -2 10 1 29 22 14 2 2 -15 1 3 2 10 8 -7 6 4 6 5 5 10 7 8 3 6 5 4 6 6 6 6 6 6 6 5 6 5 5 4 3 4 4 4 5 5 5
6 3 -2 7 -11 8 13 14 17 9 7 12 5 -7 2 -1 0 5 6 7 2 8 6 5 6 5 7 5 3 2 1 4 6 7 7 5 4 2 3 4 5 5 5 5 5 5 5 5 5
1 -1 9 -1 4 5 4 11 -7 14 13 4 4 6 3 -1 -0 3 8 1 2 3 5 5 6 5 6 5 5 6 7 7 8 4 4 6 7 6 4 3 6 6 7 5 6 4 7 5 5
7 6 -1 13 -1 12 1 3 1 4 10 5 5 20 26 26 14 7 3 -0 8 3 11 7 4 4 4 3 4 2 2 2 4 4 5 6 7 6 6 4 8 4 3 6 6 9 5 6 10
3 5 3 0 1 6 5 9 4 6 9 5 2 -8 10 4 10 14 9 13 46 51 -13 10 5 6 6 6 6 5 3 4 5 5 3 3 5 6 5 4 5 6 3 0 2 3 4 10 2
7 5 4 4 -1 4 1 1 2 6 4 3 13 -6 -3 4 10 12 16 23 19 -2 -63 36 7 -3 3 2 2 6 7 8 9 9 8 9 4 8 6 9 8 4 5 6 8 8 10 20 1
3 8 6 6 6 5 1 5 7 4 5 4 1 14 8 6 5 2 1 4 11 29 19 28 45 8 4 4 0 14 14 2 2 6 6 10 8 5 8 6 4 29 13 3 6 2 4 3 14
7 7 0 7 7 5 8 4 3 6 7 8 5 4 7 7 5 4 6 11 -0 -5 -5 5 12 12 17 11 7 7 2 2 5 3 4 18 7 1 1 1 1 -5 -1 -0 1 1 6 8 5
11 10 8 7 5 5 5 10 13 8 5 10 4 0 0 13 5 9 11 2 4 8 3 4 3 11 -2 -6 14 30 3 4 4 9 7 4 0 -10 6 1 2 -2 -1 0 2 1 0 2 4
13 12 8 1 -1 4 8 14 6 0 8 13 -2 4 8 3 3 8 9 8 8 7 4 4 9 9 3 -1 19 3 50 26 43 7 7 5 6 -0 4 10 5 5 3 5 3 5 6 9 6
2 8 8 -7 24 7 4 -2 12 5 9 9 16 6 5 -8 5 6 8 6 5 4 -1 -1 -1 3 5 11 19 10 12 9 11 33 50 18 8 6 3 8 3 6 3 5 3 -1 7 8 2
8 14 13 13 -7 17 7 3 22 -2 13 -2 8 4 -2 4 12 5 10 8 7 2 2 6 2 3 9 14 7 5 2 1 1 4 4 2 5 29 24 48 31 -4 -5 -6 -1 0 4 1 7
8 10 11 13 5 13 -2 -1 4 9 5 4 -2 19 6 23 7 8 10 3 -2 5 8 4 3 6 16 13 -3 -2 5 14 16 17 12 8 4 8 4 2 7 32 -10 26 37 33 22 -18 16
8 4 5 10 18 2 8 8 26 -1 -1 8 42 -7 34 18 6 12 -0 -5 17 4 3 7 9 20 -1 11 2 5 9 -5 -0 2 5 10 16 14 8 6 6 5 7 8 11 7 12 19 33
10 17 10 9 -5 -2 4 6 10 0 7 31 6 -8 15 12 4 -21 16 16 10 10 9 13 20 3 5 9 6 14 -10 -1 0 -7 -5 5 8 7 13 12 10 7 6 12 18 6 16 2 10
12 10 11 13 3 5 15 5 15 22 9 3 3 17 -4 16 15 49 23 9 5 9 13 8 3 7 7 5 13 6 -10 4 -7 -1 9 8 10 7 5 8 11 15 16 18 19 14 11 12 6
14 17 16 18 18 23 32 14 16 4 7 15 6 5 5 21 18 14 11 17 15 10 5 -2 8 4 8 0 0 5 5 -5 6 16 12 10 12 14 12 8 6 8 12 16 14 16 18 20 7
14 17 22 22 18 19 11 1 37 12 29 23 2 -9 18 -0 12 4 11 2 1 3 6 9 13 8 3 5 1 7 19 22 17 16 12 10 9 12 13 12 12 9 8 9 7 7 11 10 16
15 7 -1 3 17 4 0 27 6 5 11 0 45 -38 39 -15 -10 22 4 1 3 16 16 13 12 14 16 22 25 20 14 12 13 16 17 18 13 12 15 12 10 7 7 7 8 8 8 8 8
1 -2 2 6 9 1 6 1 5 8 19 20 -16 20 -16 28 12 -15 4 10 9 7 9 9 11 13 10 7 6 5 11 13 12 10 11 12 10 9 8 10 13 13 12 11 11 9 7 9 10
5 4 7 4 3 3 8 7 5 28 -6 25 -6 -4 8 7 4 6 11 6 7 9 11 9 13 10 7 10 11 11 10 10 11 14 14 13 12 11 9 7 7 7 7 7 8 7 6 6 6
4 6 7 3 6 10 9 4 11 8 7 13 3 5 11 11 14 9 4 7 11 10 7 6 5 7 4 9 16 15 16 13 9 7 7 7 7 7 7 8 7 8 7 6 5 5 6 6 6
6 6 -1 8 6 6 7 18 13 11 5 8 8 10 6 5 6 7 10 12 14 1 4 8 2 5 6 14 12 8 8 7 7 4 5 7 5 6 4 4 5 4 6 9 10 9 7 6 6
3 0 3 9 17 16 3 3 12 10 4 8 7 4 8 7 9 11 12 15 7 5 4 8 5 7 13 12 10 7 5 9 2 6 3 3 4 5 7 4 2 4 8 12 13 12 12 11 13
Height
5903 5903 5904 5906 5907 5905 5904 5905 5904 5906 5908 5906 5902 5897 5896 5896 5894 5896 5892 5888 5888 5889 5888 5889 5890 5891 5890 5891 5893 5894 5894 5895 5896 5896 5895 5895 5895 5895 5894 5894 5893 5893 5893 5892 5891 5891 5890 5890 5888
5903 5905 5904 5906 5907 5906 5904 5902 5903 5907 5908 5906 5893 5893 5895 5895 5892 5893 5890 5888 5887 5887 5887 5886 5888 5890 5891 5891 5891 5892 5893 5894 5895 5896 5896 5895 5895 5894 5893 5892 5891 5891 5890 5889 5888 5888 5887 5886 5885
5903 5903 5904 5906 5905 5903 5901 5901 5901 5904 5905 5899 5897 5895 5894 5892 5890 5890 5890 5886 5887 5887 5887 5887 5887 5887 5889 5890 5890 5890 5891 5891 5892 5893 5893 5893 5892 5892 5892 5890 5889 5889 5888 5888 5887 5886 5885 5884 5883
5904 5905 5905 5904 5904 5903 5903 5902 5905 5902 5904 5898 5895 5895 5892 5889 5888 5888 5890 5886 5887 5886 5886 5887 5888 5888 5887 5887 5887 5888 5888 5888 5889 5890 5889 5889 5889 5889 5889 5888 5888 5887 5886 5885 5884 5884 5883 5882 5881
5904 5904 5905 5904 5903 5902 5904 5905 5906 5902 5898 5895 5891 5893 5891 5890 5887 5885 5889 5887 5885 5884 5883 5884 5884 5884 5885 5883 5884 5885 5885 5885 5885 5885 5885 5885 5885 5885 5884 5883 5883 5882 5882 5882 5881 5880 5879 5878 5877
5905 5905 5905 5901 5897 5900 5902 5904 5903 5901 5898 5891 5889 5890 5888 5890 5885 5883 5885 5885 5884 5883 5882 5882 5881 5881 5881 5882 5882 5881 5880 5880 5880 5879 5879 5878 5878 5878 5878 5877 5876 5876 5876 5875 5874 5874 5873 5873 5872
5904 5906 5904 5899 5896 5900 5900 5901 5900 5899 5895 5888 5888 5886 5888 5887 5883 5879 5881 5882 5881 5881 5881 5882 5881 5879 5879 5879 5878 5878 5878 5877 5876 5877 5878 5878 5876 5876 5875 5874 5873 5872 5871 5871 5870 5869 5867 5866 5866
5905 5903 5901 5897 5896 5896 5899 5900 5897 5897 5896 5883 5882 5882 5883 5876 5882 5878 5879 5879 5878 5875 5875 5876 5877 5878 5877 5876 5875 5875 5875 5874 5873 5873 5872 5871 5870 5869 5868 5868 5868 5867 5866 5866 5865 5864 5863 5862 5861
5902 5902 5900 5899 5896 5897 5898 5897 5895 5894 5892 5888 5884 5882 5884 5879 5882 5879 5873 5871 5868 5867 5870 5870 5870 5872 5872 5871 5872 5871 5870 5871 5869 5867 5866 5865 5865 5865 5864 5864 5863 5862 5861 5860 5860 5859 5858 5856 5855
5899 5898 5898 5897 5894 5895 5895 5894 5892 5892 5889 5885 5880 5881 5882 5880 5879 5871 5866 5865 5864 5857 5850 5863 5867 5867 5868 5866 5865 5865 5865 5863 5861 5860 5860 5860 5859 5858 5858 5858 5856 5855 5854 5852 5851 5851 5850 5849 5849
5898 5895 5895 5894 5894 5892 5892 5892 5890 5890 5886 5882 5880 5880 5876 5875 5863 5862 5865 5864 5855 5847 5845 5860 5859 5859 5861 5861 5858 5859 5858 5857 5855 5853 5852 5850 5851 5850 5851 5851 5849 5848 5846 5844 5843 5842 5842 5842 5841
5893 5892 5890 5892 5891 5891 5888 5888 5888 5888 5885 5880 5879 5873 5869 5865 5858 5863 5863 5858 5855 5852 5851 5858 5856 5853 5853 5854 5854 5853 5849 5849 5846 5845 5845 5844 5843 5841 5841 5842 5841 5841 5838 5834 5831 5833 5835 5833 5832
5888 5887 5885 5885 5886 5886 5886 5885 5883 5884 5884 5879 5879 5877 5872 5864 5864 5861 5861 5861 5856 5852 5847 5850 5849 5845 5847 5847 5847 5845 5840 5838 5837 5835 5834 5836 5832 5829 5829 5830 5830 5830 5829 5827 5826 5825 5825 5823 5823
5881 5882 5881 5878 5877 5879 5880 5880 5876 5877 5880 5880 5877 5871 5870 5866 5861 5860 5857 5858 5855 5850 5847 5848 5842 5839 5839 5839 5837 5837 5834 5832 5830 5827 5827 5827 5827 5824 5822 5822 5821 5820 5819 5818 5818 5817 5818 5818 5817
5876 5875 5873 5872 5870 5872 5872 5874 5869 5871 5873 5874 5875 5870 5865 5863 5859 5857 5855 5855 5854 5848 5845 5838 5836 5837 5834 5831 5830 5828 5826 5824 5822 5821 5819 5817 5816 5815 5814 5813 5811 5811 5810 5809 5809 5809 5808 5808 5807
5869 5867 5868 5865 5864 5863 5866 5866 5863 5864 5866 5868 5868 5866 5863 5858 5855 5851 5850 5851 5847 5845 5841 5838 5836 5836 5835 5830 5824 5822 5819 5816 5812 5810 5810 5809 5806 5805 5803 5803 5802 5800 5800 5799 5798 5799 5798 5797 5797
5859 5861 5861 5858 5856 5857 5857 5860 5857 5853 5854 5855 5860 5861 5860 5854 5848 5848 5846 5843 5841 5840 5838 5837 5836 5831 5826 5821 5817 5814 5811 5807 5805 5800 5798 5797 5795 5792 5790 5790 5790 5789 5787 5786 5786 5785 5785 5785 5784
5854 5854 5853 5854 5852 5851 5848 5854 5855 5852 5848 5843 5847 5849 5853 5850 5845 5843 5841 5839 5837 5835 5832 5829 5826 5821 5818 5815 5812 5808 5805 5801 5797 5793 5790 5788 5786 5783 5778 5776 5777 5775 5774 5771 5771 5770 5770 5770 5771
5849 5850 5851 5850 5851 5849 5845 5845 5853 5849 5845 5837 5835 5837 5842 5840 5841 5839 5838 5835 5833 5830 5826 5822 5818 5814 5810 5807 5803 5798 5795 5791 5787 5783 5780 5777 5774 5771 5769 5766 5764 5762 5759 5758 5754 5754 5754 5754 5753
5841 5841 5844 5845 5847 5843 5843 5845 5846 5843 5838 5832 5832 5837 5832 5833 5834 5835 5833 5830 5827 5824 5820 5816 5811 5808 5804 5800 5798 5794 5790 5785 5780 5775 5770 5766 5761 5758 5756 5753 5751 5750 5747 5744 5742 5739 5738 5736 5734
5835 5834 5835 5835 5837 5836 5836 5837 5840 5837 5833 5826 5825 5827 5829 5826 5826 5827 5826 5824 5820 5818 5814 5810 5805 5802 5798 5794 5790 5787 5783 5779 5775 5769 5763 5757 5752 5746 5742 5738 5735 5733 5732 5731 5729 5726 5723 5721 5718
5827 5827 5826 5828 5829 5830 5831 5828 5834 5830 5825 5820 5820 5822 5823 5821 5820 5820 5818 5816 5813 5811 5808 5803 5800 5796 5792 5788 5783 5779 5774 5769 5763 5758 5752 5746 5741 5735 5730 5724 5721 5719 5717 5714 5712 5711 5709 5707 5705
5821 5820 5821 5822 5823 5822 5825 5822 5820 5821 5819 5816 5814 5815 5813 5812 5813 5814 5813 5809 5806 5803 5799 5796 5792 5787 5783 5778 5774 5769 5763 5757 5750 5744 5738 5733 5727 5722 5718 5713 5709 5706 5702 5699 5696 5693 5691 5690 5689
5816 5816 5817 5817 5818 5820 5816 5816 5815 5816 5813 5808 5806 5804 5809 5809 5808 5808 5803 5799 5796 5794 5791 5788 5784 5779 5773 5766 5761 5755 5749 5743 5737 5731 5725 5720 5715 5710 5705 5701 5696 5691 5687 5684 5682 5679 5676 5674 5672
5813 5814 5814 5816 5815 5815 5812 5811 5811 5810 5809 5805 5801 5799 5801 5802 5802 5800 5795 5793 5791 5787 5781 5777 5772 5768 5763 5755 5749 5742 5736 5731 5725 5720 5715 5710 5705 5699 5693 5688 5683 5678 5673 5670 5666 5663 5661 5658 5657
5810 5811 5810 5811 5812 5811 5809 5805 5804 5804 5804 5803 5798 5797 5797 5795 5795 5793 5787 5783 5778 5774 5770 5765 5760 5755 5749 5742 5738 5732 5727 5720 5715 5709 5704 5699 5694 5688 5683 5677 5672 5667 5661 5655 5650 5646 5642 5640 5639
5808 5805 5808 5806 5807 5807 5806 5804 5801 5799 5799 5797 5797 5794 5793 5791 5787 5784 5778 5773 5769 5764 5758 5753 5749 5743 5738 5733 5727 5721 5715 5710 5704 5698 5693 5687 5682 5676 5670 5664 5658 5653 5647 5641 5636 5631 5626 5621 5617
5804 5804 5804 5801 5801 5802 5801 5799 5797 5795 5793 5793 5790 5789 5787 5785 5782 5777 5772 5767 5762 5756 5750 5745 5739 5735 5729 5723 5716 5710 5704 5698 5693 5687 5681 5675 5669 5662 5656 5649 5643 5636 5630 5624 5617 5612 5607 5603 5599
5801 5799 5799 5799 5797 5794 5796 5796 5792 5790 5790 5787 5785 5782 5781 5779 5775 5770 5764 5759 5754 5749 5742 5737 5731 5726 5719 5712 5706 5700 5694 5688 5681 5675 5669 5662 5655 5648 5641 5633 5625 5617 5609 5602 5594 5588 5582 5577 5574
5792 5793 5792 5792 5793 5790 5789 5793 5787 5784 5782 5780 5779 5775 5773 5769 5766 5762 5757 5752 5747 5742 5736 5730 5723 5717 5710 5703 5697 5691 5685 5678 5671 5664 5657 5649 5641 5632 5623 5613 5604 5593 5582 5572 5563 5557 5552 5547 5543